Radiation Dose at Monitoring Post of Fukushima Daini Nuclear Power Station
Date,Time,MP-1(microSv/h),MP-2(microSv/h),MP-3(microSv/h),MP-4(microSv/h),MP-5(microSv/h),MP-6(microSv/h),MP-7(microSv/h),Wind Direction,Wind Velocity(m/s),Rain
2017/01/06,00:00,0.395,0.237,0.409,0.378,0.342,0.195,0.166,north,7.4,No
2017/01/06,00:10,0.396,0.237,0.406,0.378,0.341,0.196,0.167,north-northwest,8.0,No
2017/01/06,00:20,0.396,0.237,0.409,0.377,0.342,0.195,0.167,north-northwest,10.7,No
2017/01/06,00:30,0.396,0.238,0.409,0.378,0.342,0.196,0.167,north-northwest,7.2,No
2017/01/06,00:40,0.396,0.237,0.410,0.378,0.341,0.195,0.167,north-northwest,8.5,No
2017/01/06,00:50,0.394,0.237,0.409,0.377,0.342,0.195,0.167,north-northwest,8.4,No
2017/01/06,01:00,0.395,0.237,0.409,0.377,0.341,0.195,0.166,north-northwest,8.8,No
2017/01/06,01:10,0.395,0.237,0.409,0.379,0.341,0.195,0.167,north-northwest,9.3,No
2017/01/06,01:20,0.396,0.237,0.410,0.377,0.342,0.195,0.167,north,9.8,No
2017/01/06,01:30,0.395,0.237,0.410,0.378,0.342,0.194,0.168,north,7.9,No
2017/01/06,01:40,0.395,0.236,0.408,0.378,0.342,0.195,0.167,north,8.2,No
2017/01/06,01:50,0.395,0.237,0.408,0.376,0.342,0.195,0.168,north,8.9,No
2017/01/06,02:00,0.398,0.237,0.409,0.379,0.340,0.195,0.167,north-northwest,8.0,No
2017/01/06,02:10,0.397,0.239,0.410,0.379,0.341,0.194,0.167,north-northwest,7.0,No
2017/01/06,02:20,0.395,0.238,0.409,0.377,0.341,0.195,0.168,north-northwest,5.7,No
2017/01/06,02:30,0.393,0.237,0.409,0.377,0.341,0.195,0.167,north,5.4,No
2017/01/06,02:40,0.395,0.237,0.410,0.377,0.342,0.195,0.167,north,5.9,No
2017/01/06,02:50,0.396,0.237,0.409,0.378,0.340,0.195,0.167,north,5.1,No
2017/01/06,03:00,0.396,0.236,0.408,0.377,0.342,0.194,0.167,north,5.2,No
2017/01/06,03:10,0.396,0.237,0.409,0.377,0.341,0.195,0.167,north,6.4,No
2017/01/06,03:20,0.394,0.238,0.408,0.379,0.342,0.196,0.167,north,6.8,No
2017/01/06,03:30,0.393,0.237,0.409,0.378,0.343,0.195,0.168,north,6.4,No
2017/01/06,03:40,0.395,0.237,0.407,0.377,0.343,0.195,0.167,north,6.1,No
2017/01/06,03:50,0.396,0.236,0.409,0.378,0.341,0.196,0.167,north,7.3,No
2017/01/06,04:00,0.396,0.237,0.410,0.378,0.341,0.195,0.167,north,6.9,No
2017/01/06,04:10,0.395,0.236,0.408,0.378,0.342,0.194,0.167,north,6.1,No
2017/01/06,04:20,0.395,0.237,0.410,0.377,0.340,0.196,0.167,north,7.0,No
2017/01/06,04:30,0.395,0.236,0.409,0.377,0.341,0.195,0.167,north,7.1,No
2017/01/06,04:40,0.396,0.236,0.409,0.379,0.343,0.194,0.167,north,7.8,No
2017/01/06,04:50,0.395,0.235,0.409,0.378,0.341,0.195,0.168,north,9.5,No
2017/01/06,05:00,0.395,0.238,0.409,0.377,0.342,0.194,0.167,north,9.9,No
2017/01/06,05:10,0.394,0.237,0.409,0.377,0.342,0.194,0.166,north,10.3,No
2017/01/06,05:20,0.396,0.237,0.407,0.379,0.342,0.194,0.168,north,11.0,No
2017/01/06,05:30,0.397,0.238,0.409,0.379,0.342,0.194,0.167,north,9.8,No
2017/01/06,05:40,0.396,0.236,0.410,0.378,0.340,0.194,0.167,north,8.3,No
2017/01/06,05:50,0.396,0.237,0.409,0.378,0.340,0.194,0.167,north,7.9,No
2017/01/06,06:00,0.396,0.239,0.410,0.379,0.342,0.195,0.167,north,8.1,No
2017/01/06,06:10,0.395,0.238,0.409,0.377,0.342,0.194,0.167,north,7.4,No
2017/01/06,06:20,0.396,0.236,0.408,0.378,0.342,0.195,0.167,north,6.4,No
2017/01/06,06:30,0.396,0.236,0.410,0.377,0.341,0.194,0.166,north,7.1,No
2017/01/06,06:40,0.395,0.236,0.409,0.377,0.341,0.194,0.167,north,9.2,No
2017/01/06,06:50,0.396,0.237,0.408,0.378,0.341,0.194,0.167,north,10.1,No
2017/01/06,07:00,0.395,0.236,0.409,0.378,0.340,0.195,0.167,north,10.8,No
2017/01/06,07:10,0.395,0.238,0.409,0.378,0.340,0.194,0.168,north,9.8,No
2017/01/06,07:20,0.396,0.237,0.410,0.377,0.342,0.195,0.167,north,7.9,No
2017/01/06,07:30,0.395,0.236,0.410,0.378,0.341,0.196,0.166,north,7.5,No
2017/01/06,07:40,0.395,0.236,0.410,0.376,0.341,0.196,0.167,north,7.4,No
2017/01/06,07:50,0.396,0.237,0.409,0.377,0.342,0.194,0.168,north,8.0,No
2017/01/06,08:00,0.395,0.236,0.408,0.378,0.341,0.194,0.167,north,7.8,No
2017/01/06,08:10,0.396,0.236,0.410,0.377,0.340,0.195,0.167,north,7.5,No
2017/01/06,08:20,0.396,0.236,0.409,0.377,0.341,0.194,0.166,north,7.0,No
2017/01/06,08:30,0.395,0.237,0.408,0.376,0.340,0.194,0.168,north,5.9,No
2017/01/06,08:40,0.395,0.236,0.409,0.378,0.342,0.194,0.166,north,5.1,No
2017/01/06,08:50,0.394,0.236,0.410,0.376,0.341,0.194,0.167,north,5.7,No
2017/01/06,09:00,0.397,0.237,0.409,0.375,0.340,0.193,0.167,north,6.4,No
2017/01/06,09:10,0.396,0.236,0.409,0.378,0.339,0.194,0.167,north,5.9,No
2017/01/06,09:20,0.394,0.235,0.409,0.377,0.341,0.194,0.167,north,5.0,No
2017/01/06,09:30,0.395,0.236,0.410,0.376,0.339,0.194,0.166,north,5.6,No
2017/01/06,09:40,0.395,0.235,0.408,0.378,0.341,0.194,0.166,north,5.2,No
2017/01/06,09:50,0.394,0.236,0.408,0.375,0.340,0.194,0.166,north,5.4,No
2017/01/06,10:00,0.394,0.234,0.409,0.378,0.340,0.194,0.166,north-northeast,5.9,No
2017/01/06,10:10,0.393,0.235,0.408,0.376,0.340,0.195,0.167,north,5.9,No
2017/01/06,10:20,0.394,0.236,0.408,0.377,0.340,0.194,0.167,north,6.5,No
2017/01/06,10:30,0.394,0.237,0.407,0.377,0.341,0.195,0.168,north-northeast,6.6,No
2017/01/06,10:40,0.392,0.235,0.409,0.375,0.339,0.196,0.167,north-northeast,6.7,No
2017/01/06,10:50,0.392,0.235,0.409,0.377,0.341,0.195,0.167,north-northeast,5.9,No
2017/01/06,11:00,0.393,0.235,0.409,0.378,0.341,0.194,0.167,north-northeast,8.4,No
2017/01/06,11:10,0.395,0.236,0.408,0.377,0.341,0.195,0.168,north,7.3,No
2017/01/06,11:20,0.393,0.236,0.409,0.379,0.342,0.194,0.166,north-northeast,7.1,No
2017/01/06,11:30,0.396,0.236,0.408,0.377,0.343,0.195,0.166,north-northeast,9.7,No
2017/01/06,11:40,0.393,0.236,0.408,0.378,0.339,0.194,0.168,north-northeast,9.1,No
2017/01/06,11:50,0.393,0.237,0.409,0.376,0.343,0.194,0.167,north-northeast,8.4,No
2017/01/06,12:00,0.395,0.236,0.406,0.376,0.340,0.195,0.167,north-northeast,8.5,No
2017/01/06,12:10,0.395,0.236,0.408,0.378,0.340,0.195,0.167,north-northeast,9.0,No
2017/01/06,12:20,0.394,0.235,0.408,0.377,0.343,0.196,0.167,north-northeast,6.4,No
2017/01/06,12:30,0.395,0.236,0.406,0.376,0.341,0.195,0.166,north-northeast,8.0,No
2017/01/06,12:40,0.395,0.237,0.407,0.376,0.339,0.195,0.166,north-northeast,6.7,No
2017/01/06,12:50,0.395,0.237,0.406,0.378,0.343,0.195,0.167,north-northeast,7.8,No
2017/01/06,13:00,0.396,0.236,0.409,0.378,0.343,0.194,0.166,north-northeast,8.7,No
2017/01/06,13:10,0.396,0.237,0.408,0.378,0.341,0.194,0.167,north-northeast,7.3,No
2017/01/06,13:20,0.395,0.237,0.408,0.377,0.343,0.195,0.168,north-northeast,8.1,No
2017/01/06,13:30,0.395,0.236,0.407,0.378,0.344,0.195,0.168,north-northeast,8.4,No
2017/01/06,13:40,0.397,0.236,0.408,0.378,0.342,0.194,0.167,north-northeast,7.8,No
2017/01/06,13:50,0.393,0.236,0.407,0.378,0.342,0.195,0.168,north-northeast,6.4,No
2017/01/06,14:00,0.395,0.237,0.406,0.378,0.343,0.194,0.168,north,8.0,No
2017/01/06,14:10,0.396,0.236,0.408,0.377,0.343,0.195,0.167,north-northeast,8.1,No
2017/01/06,14:20,0.394,0.236,0.408,0.378,0.342,0.195,0.167,north-northeast,9.0,No
2017/01/06,14:30,0.395,0.237,0.407,0.378,0.343,0.194,0.167,north,7.1,No
2017/01/06,14:40,0.396,0.236,0.408,0.378,0.342,0.196,0.167,north-northeast,9.9,No
2017/01/06,14:50,0.395,0.236,0.408,0.379,0.341,0.195,0.167,north-northeast,8.7,No
2017/01/06,15:00,0.394,0.236,0.408,0.377,0.342,0.195,0.168,north-northeast,8.3,No
2017/01/06,15:10,0.396,0.237,0.409,0.379,0.342,0.195,0.168,north-northeast,7.1,No
2017/01/06,15:20,0.397,0.237,0.408,0.379,0.341,0.195,0.167,north,7.9,No
2017/01/06,15:30,0.396,0.237,0.408,0.378,0.341,0.195,0.166,northeast,3.0,No
2017/01/06,15:40,0.396,0.236,0.408,0.378,0.342,0.195,0.167,northeast,1.7,No
2017/01/06,15:50,0.395,0.237,0.410,0.378,0.341,0.194,0.167,north-northeast,4.2,No
2017/01/06,16:00,0.396,0.237,0.407,0.379,0.341,0.194,0.168,north,5.0,No
2017/01/06,16:10,0.395,0.237,0.407,0.377,0.342,0.195,0.167,north,4.5,No
2017/01/06,16:20,0.395,0.237,0.409,0.377,0.343,0.194,0.167,north-northwest,2.1,No
2017/01/06,16:30,0.396,0.238,0.409,0.378,0.341,0.194,0.167,northwest,1.2,No
2017/01/06,16:40,0.395,0.235,0.407,0.376,0.342,0.194,0.166,north-northwest,2.8,No
2017/01/06,16:50,0.395,0.238,0.408,0.377,0.341,0.196,0.167,north,6.4,No
2017/01/06,17:00,0.394,0.236,0.408,0.379,0.343,0.194,0.168,north,8.3,No
2017/01/06,17:10,0.395,0.237,0.409,0.378,0.341,0.194,0.167,north,8.1,No
2017/01/06,17:20,0.394,0.237,0.408,0.377,0.342,0.194,0.166,north,8.1,No
2017/01/06,17:30,0.395,0.237,0.408,0.377,0.343,0.195,0.168,north,7.3,No
2017/01/06,17:40,0.396,0.236,0.409,0.377,0.342,0.195,0.167,north,6.0,No
2017/01/06,17:50,0.395,0.237,0.408,0.378,0.342,0.195,0.167,north,5.3,No
2017/01/06,18:00,0.395,0.236,0.408,0.379,0.341,0.196,0.167,north,5.0,No
2017/01/06,18:10,0.395,0.237,0.408,0.378,0.341,0.195,0.167,-,CALM,No
2017/01/06,18:20,0.397,0.237,0.409,0.378,0.342,0.195,0.167,northwest,1.7,No
2017/01/06,18:30,0.395,0.237,0.409,0.378,0.342,0.194,0.167,north-northwest,1.1,No
2017/01/06,18:40,0.397,0.238,0.408,0.378,0.342,0.196,0.168,north,2.0,No
2017/01/06,18:50,0.395,0.236,0.408,0.377,0.341,0.195,0.167,north,1.3,No
2017/01/06,19:00,0.394,0.236,0.408,0.379,0.342,0.195,0.167,north-northwest,0.9,No
2017/01/06,19:10,0.395,0.237,0.410,0.377,0.342,0.195,0.168,north-northwest,1.3,No
2017/01/06,19:20,0.397,0.238,0.409,0.378,0.341,0.195,0.166,north-northwest,0.7,No
2017/01/06,19:30,0.395,0.236,0.408,0.377,0.344,0.195,0.168,north-northwest,1.2,No
2017/01/06,19:40,0.396,0.239,0.409,0.378,0.342,0.195,0.167,northwest,1.1,No
2017/01/06,19:50,0.396,0.237,0.408,0.377,0.340,0.195,0.167,west,1.7,No
2017/01/06,20:00,0.395,0.236,0.409,0.379,0.341,0.196,0.167,northwest,2.3,No
2017/01/06,20:10,0.395,0.237,0.409,0.378,0.341,0.195,0.167,northwest,2.1,No
2017/01/06,20:20,0.395,0.237,0.408,0.378,0.342,0.196,0.168,west-northwest,1.5,No
2017/01/06,20:30,0.395,0.236,0.408,0.379,0.342,0.194,0.167,west-northwest,1.7,No
2017/01/06,20:40,0.395,0.237,0.409,0.378,0.343,0.195,0.167,northwest,1.7,No
2017/01/06,20:50,0.395,0.237,0.410,0.377,0.342,0.195,0.167,west-northwest,1.5,No
2017/01/06,21:00,0.397,0.237,0.410,0.378,0.341,0.194,0.168,northwest,1.5,No
2017/01/06,21:10,0.395,0.238,0.409,0.377,0.341,0.195,0.168,north-northwest,1.3,No
2017/01/06,21:20,0.394,0.237,0.407,0.378,0.340,0.196,0.167,north-northwest,1.1,No
2017/01/06,21:30,0.395,0.238,0.409,0.378,0.342,0.195,0.167,north,1.4,No
2017/01/06,21:40,0.397,0.237,0.408,0.377,0.342,0.195,0.167,north,2.0,No
2017/01/06,21:50,0.397,0.236,0.409,0.377,0.342,0.195,0.167,north,2.0,No
2017/01/06,22:00,0.396,0.238,0.408,0.377,0.341,0.195,0.167,west-northwest,0.6,No
2017/01/06,22:10,0.395,0.236,0.409,0.377,0.341,0.195,0.167,west,2.2,No
2017/01/06,22:20,0.395,0.237,0.408,0.379,0.341,0.194,0.167,west-northwest,4.9,No
2017/01/06,22:30,0.395,0.236,0.408,0.378,0.342,0.194,0.167,west-northwest,3.6,No
2017/01/06,22:40,0.395,0.235,0.408,0.376,0.343,0.194,0.168,west-northwest,3.2,No
2017/01/06,22:50,0.395,0.236,0.408,0.378,0.342,0.195,0.167,west-northwest,2.5,No
2017/01/06,23:00,0.395,0.238,0.409,0.378,0.343,0.194,0.167,west-northwest,1.7,No
2017/01/06,23:10,0.395,0.237,0.409,0.378,0.342,0.194,0.167,northwest,2.0,No
2017/01/06,23:20,0.396,0.236,0.409,0.377,0.342,0.195,0.167,north-northwest,3.0,No
2017/01/06,23:30,0.395,0.237,0.408,0.377,0.342,0.195,0.167,northwest,2.2,No
2017/01/06,23:40,0.395,0.235,0.410,0.378,0.342,0.195,0.167,northwest,2.4,No
2017/01/06,23:50,0.394,0.238,0.410,0.377,0.341,0.194,0.166,north-northwest,2.8,No
